Year,Month,Day,Hour,Minute,Value (Times are PST for temperature in C)
2010,04,26,00,00,10.40
2010,04,26,00,01,10.40
2010,04,26,00,02,10.40
2010,04,26,00,03,10.40
2010,04,26,00,04,10.40
2010,04,26,00,05,10.40
2010,04,26,00,06,10.40
2010,04,26,00,07,10.40
2010,04,26,00,08,10.40
2010,04,26,00,09,10.40
2010,04,26,00,10,10.40
2010,04,26,00,11,10.40
2010,04,26,00,12,10.40
2010,04,26,00,13,10.40
2010,04,26,00,14,10.40
2010,04,26,00,15,10.40
2010,04,26,00,16,10.40
2010,04,26,00,17,10.40
2010,04,26,00,18,10.40
2010,04,26,00,19,10.40
2010,04,26,00,20,10.40
2010,04,26,00,21,10.40
2010,04,26,00,22,10.40
2010,04,26,00,23,10.40
2010,04,26,00,24,10.40
2010,04,26,00,25,10.40
2010,04,26,00,26,10.40
2010,04,26,00,27,10.40
2010,04,26,00,28,10.40
2010,04,26,00,29,10.40
2010,04,26,00,30,10.40
2010,04,26,00,31,10.40
2010,04,26,00,32,10.40
2010,04,26,00,33,10.40
2010,04,26,00,34,10.40
2010,04,26,00,35,10.40
2010,04,26,00,36,10.40
2010,04,26,00,37,10.40
2010,04,26,00,38,10.40
2010,04,26,00,39,10.40
2010,04,26,00,40,10.40
2010,04,26,00,41,10.40
2010,04,26,00,42,10.40
2010,04,26,00,43,10.40
2010,04,26,00,44,10.40
2010,04,26,00,45,10.50
2010,04,26,00,46,10.60
2010,04,26,00,47,10.60
2010,04,26,00,48,10.60
2010,04,26,00,49,10.60
2010,04,26,00,50,10.60
2010,04,26,00,51,10.50
2010,04,26,00,52,10.40
2010,04,26,00,53,10.40
2010,04,26,00,54,10.40
2010,04,26,00,55,10.40
2010,04,26,00,56,10.40
2010,04,26,00,57,10.40
2010,04,26,00,58,10.40
2010,04,26,00,59,10.40
2010,04,26,01,00,10.40
2010,04,26,01,01,10.40
2010,04,26,01,02,10.40
2010,04,26,01,03,10.40
2010,04,26,01,04,10.40
2010,04,26,01,05,10.40
2010,04,26,01,06,10.40
2010,04,26,01,07,10.40
2010,04,26,01,08,10.40
2010,04,26,01,09,10.40
2010,04,26,01,10,10.40
2010,04,26,01,11,10.40
2010,04,26,01,12,10.40
2010,04,26,01,13,10.50
2010,04,26,01,14,10.60
2010,04,26,01,15,10.60
2010,04,26,01,16,10.50
2010,04,26,01,17,10.40
2010,04,26,01,18,10.40
2010,04,26,01,19,10.40
2010,04,26,01,20,10.40
2010,04,26,01,21,10.40
2010,04,26,01,22,10.40
2010,04,26,01,23,10.40
2010,04,26,01,24,10.40
2010,04,26,01,25,10.40
2010,04,26,01,26,10.40
2010,04,26,01,27,10.40
2010,04,26,01,28,10.40
2010,04,26,01,29,10.40
2010,04,26,01,30,10.40
2010,04,26,01,31,10.40
2010,04,26,01,32,10.40
2010,04,26,01,33,10.40
2010,04,26,01,34,10.40
2010,04,26,01,35,10.40
2010,04,26,01,36,10.40
2010,04,26,01,37,10.40
2010,04,26,01,38,10.40
2010,04,26,01,39,10.40
2010,04,26,01,40,10.40
2010,04,26,01,41,10.40
2010,04,26,01,42,10.40
2010,04,26,01,43,10.30
2010,04,26,01,44,10.30
2010,04,26,01,45,10.30
2010,04,26,01,46,10.30
2010,04,26,01,47,10.30
2010,04,26,01,48,10.30
2010,04,26,01,49,10.30
2010,04,26,01,50,10.30
2010,04,26,01,51,10.30
2010,04,26,01,52,10.30
2010,04,26,01,53,10.30
2010,04,26,01,54,10.20
2010,04,26,01,55,10.20
2010,04,26,01,56,10.20
2010,04,26,01,57,10.20
2010,04,26,01,58,10.20
2010,04,26,01,59,10.20
2010,04,26,02,00,10.20
2010,04,26,02,01,10.20
2010,04,26,02,02,10.20
2010,04,26,02,03,10.20
2010,04,26,02,04,10.10
2010,04,26,02,05,10.10
2010,04,26,02,06,10.10
2010,04,26,02,07,10.10
2010,04,26,02,08,10.10
2010,04,26,02,09,10.10
2010,04,26,02,10,10.10
2010,04,26,02,11,10.10
2010,04,26,02,12,10.10
2010,04,26,02,13,10.10
2010,04,26,02,14,10.10
2010,04,26,02,15,10.10
2010,04,26,02,16,10.10
2010,04,26,02,17,10.10
2010,04,26,02,18,10.10
2010,04,26,02,19,10.10
2010,04,26,02,20,10.10
2010,04,26,02,21,10.10
2010,04,26,02,22,10.10
2010,04,26,02,23,10.10
2010,04,26,02,24,10.10
2010,04,26,02,25,10.10
2010,04,26,02,26,10.10
2010,04,26,02,27,10.10
2010,04,26,02,28,10.10
2010,04,26,02,29,10.10
2010,04,26,02,30,10.10
2010,04,26,02,31,10.10
2010,04,26,02,32,10.10
2010,04,26,02,33,10.10
2010,04,26,02,34,10.10
2010,04,26,02,35,10.00
2010,04,26,02,36,9.90
2010,04,26,02,37,9.90
2010,04,26,02,38,9.90
2010,04,26,02,39,9.90
2010,04,26,02,40,9.90
2010,04,26,02,41,9.90
2010,04,26,02,42,9.90
2010,04,26,02,43,9.90
2010,04,26,02,44,9.90
2010,04,26,02,45,9.90
2010,04,26,02,46,9.90
2010,04,26,02,47,9.90
2010,04,26,02,48,9.90
2010,04,26,02,49,9.90
2010,04,26,02,50,9.90
2010,04,26,02,51,9.90
2010,04,26,02,52,9.90
2010,04,26,02,53,9.90
2010,04,26,02,54,9.90
2010,04,26,02,55,9.90
2010,04,26,02,56,9.90
2010,04,26,02,57,9.90
2010,04,26,02,58,9.90
2010,04,26,02,59,9.90
2010,04,26,03,00,9.90
2010,04,26,03,01,9.90
2010,04,26,03,02,9.90
2010,04,26,03,03,9.90
2010,04,26,03,04,9.90
2010,04,26,03,05,9.90
2010,04,26,03,06,9.90
2010,04,26,03,07,9.90
2010,04,26,03,08,9.90
2010,04,26,03,09,9.90
2010,04,26,03,10,9.90
2010,04,26,03,11,9.90
2010,04,26,03,12,9.90
2010,04,26,03,13,9.90
2010,04,26,03,14,9.90
2010,04,26,03,15,9.90
2010,04,26,03,16,9.90
2010,04,26,03,17,9.90
2010,04,26,03,18,9.90
2010,04,26,03,19,9.90
2010,04,26,03,20,9.90
2010,04,26,03,21,9.90
2010,04,26,03,22,9.90
2010,04,26,03,23,9.90
2010,04,26,03,24,9.90
2010,04,26,03,25,9.90
2010,04,26,03,26,9.90
2010,04,26,03,27,9.90
2010,04,26,03,28,9.90
2010,04,26,03,29,9.90
2010,04,26,03,30,9.90
2010,04,26,03,31,9.90
2010,04,26,03,32,9.90
2010,04,26,03,33,9.90
2010,04,26,03,34,9.90
2010,04,26,03,35,9.90
2010,04,26,03,36,9.90
2010,04,26,03,37,9.90
2010,04,26,03,38,9.90
2010,04,26,03,39,9.90
2010,04,26,03,40,9.90
2010,04,26,03,41,9.90
2010,04,26,03,42,9.90
2010,04,26,03,43,9.90
2010,04,26,03,44,9.90
2010,04,26,03,45,9.90
2010,04,26,03,46,9.90
2010,04,26,03,47,9.90
2010,04,26,03,48,9.90
2010,04,26,03,49,9.90
2010,04,26,03,50,9.90
2010,04,26,03,51,9.90
2010,04,26,03,52,9.90
2010,04,26,03,53,9.90
2010,04,26,03,54,9.90
2010,04,26,03,55,9.90
2010,04,26,03,56,9.90
2010,04,26,03,57,9.90
2010,04,26,03,58,9.90
2010,04,26,03,59,9.90
2010,04,26,04,00,9.90
2010,04,26,04,01,9.90
2010,04,26,04,02,9.90
2010,04,26,04,03,9.90
2010,04,26,04,04,9.90
2010,04,26,04,05,9.90
2010,04,26,04,06,9.90
2010,04,26,04,07,9.90
2010,04,26,04,08,9.90
2010,04,26,04,09,9.90
2010,04,26,04,10,9.90
2010,04,26,04,11,9.90
2010,04,26,04,12,9.90
2010,04,26,04,13,9.90
2010,04,26,04,14,9.90
2010,04,26,04,15,9.80
2010,04,26,04,16,9.80
2010,04,26,04,17,9.80
2010,04,26,04,18,9.80
2010,04,26,04,19,9.80
2010,04,26,04,20,9.80
2010,04,26,04,21,9.80
2010,04,26,04,22,9.80
2010,04,26,04,23,9.80
2010,04,26,04,24,9.80
2010,04,26,04,25,9.80
2010,04,26,04,26,9.80
2010,04,26,04,27,9.70
2010,04,26,04,28,9.70
2010,04,26,04,29,9.70
2010,04,26,04,30,9.70
2010,04,26,04,31,9.70
2010,04,26,04,32,9.70
2010,04,26,04,33,9.70
2010,04,26,04,34,9.70
2010,04,26,04,35,9.70
2010,04,26,04,36,9.70
2010,04,26,04,37,9.70
2010,04,26,04,38,9.70
2010,04,26,04,39,9.70
2010,04,26,04,40,9.70
2010,04,26,04,41,9.70
2010,04,26,04,42,9.70
2010,04,26,04,43,9.70
2010,04,26,04,44,9.70
2010,04,26,04,45,9.70
2010,04,26,04,46,9.70
2010,04,26,04,47,9.70
2010,04,26,04,48,9.60
2010,04,26,04,49,9.60
2010,04,26,04,50,9.60
2010,04,26,04,51,9.60
2010,04,26,04,52,9.60
2010,04,26,04,53,9.50
2010,04,26,04,54,9.50
2010,04,26,04,55,9.50
2010,04,26,04,56,9.50
2010,04,26,04,57,9.50
2010,04,26,04,58,9.50
2010,04,26,04,59,9.50
2010,04,26,05,00,9.50
2010,04,26,05,01,9.50
2010,04,26,05,02,9.50
2010,04,26,05,03,9.50
2010,04,26,05,04,9.50
2010,04,26,05,05,9.50
2010,04,26,05,06,9.50
2010,04,26,05,07,9.50
2010,04,26,05,08,9.50
2010,04,26,05,09,9.50
2010,04,26,05,10,9.60
2010,04,26,05,11,9.60
2010,04,26,05,12,9.60
2010,04,26,05,13,9.60
2010,04,26,05,14,9.60
2010,04,26,05,15,9.60
2010,04,26,05,16,9.60
2010,04,26,05,17,9.60
2010,04,26,05,18,9.60
2010,04,26,05,19,9.60
2010,04,26,05,20,9.60
2010,04,26,05,21,9.60
2010,04,26,05,22,9.60
2010,04,26,05,23,9.60
2010,04,26,05,24,9.60
2010,04,26,05,25,9.60
2010,04,26,05,26,9.60
2010,04,26,05,27,9.60
2010,04,26,05,28,9.60
2010,04,26,05,29,9.60
2010,04,26,05,30,9.60
2010,04,26,05,31,9.60
2010,04,26,05,32,9.60
2010,04,26,05,33,9.60
2010,04,26,05,34,9.50
2010,04,26,05,35,9.50
2010,04,26,05,36,9.50
2010,04,26,05,37,9.50
2010,04,26,05,38,9.50
2010,04,26,05,39,9.50
2010,04,26,05,40,9.50
2010,04,26,05,41,9.50
2010,04,26,05,42,9.50
2010,04,26,05,43,9.50
2010,04,26,05,44,9.40
2010,04,26,05,45,9.40
2010,04,26,05,46,9.40
2010,04,26,05,47,9.40
2010,04,26,05,48,9.40
2010,04,26,05,49,9.40
2010,04,26,05,50,9.40
2010,04,26,05,51,9.40
2010,04,26,05,52,9.40
2010,04,26,05,53,9.40
2010,04,26,05,54,9.40
2010,04,26,05,55,9.40
2010,04,26,05,56,9.30
2010,04,26,05,57,9.30
2010,04,26,05,58,9.30
2010,04,26,05,59,9.30
2010,04,26,06,00,9.30
2010,04,26,06,01,9.30
2010,04,26,06,02,9.30
2010,04,26,06,03,9.30
2010,04,26,06,04,9.30
2010,04,26,06,05,9.30
2010,04,26,06,06,9.30
2010,04,26,06,07,9.30
2010,04,26,06,08,9.30
2010,04,26,06,09,9.30
2010,04,26,06,10,9.30
2010,04,26,06,11,9.30
2010,04,26,06,12,9.30
2010,04,26,06,13,9.30
2010,04,26,06,14,9.30
2010,04,26,06,15,9.40
2010,04,26,06,16,9.40
2010,04,26,06,17,9.40
2010,04,26,06,18,9.40
2010,04,26,06,19,9.40
2010,04,26,06,20,9.40
2010,04,26,06,21,9.50
2010,04,26,06,22,9.50
2010,04,26,06,23,9.50
2010,04,26,06,24,9.60
2010,04,26,06,25,9.60
2010,04,26,06,26,9.60
2010,04,26,06,27,9.60
2010,04,26,06,28,9.60
2010,04,26,06,29,9.60
2010,04,26,06,30,9.60
2010,04,26,06,31,9.60
2010,04,26,06,32,9.60
2010,04,26,06,33,9.60
2010,04,26,06,34,9.60
2010,04,26,06,35,9.60
2010,04,26,06,36,9.60
2010,04,26,06,37,9.60
2010,04,26,06,38,9.60
2010,04,26,06,39,9.60
2010,04,26,06,40,9.70
2010,04,26,06,41,9.70
2010,04,26,06,42,9.70
2010,04,26,06,43,9.70
2010,04,26,06,44,9.70
2010,04,26,06,45,9.70
2010,04,26,06,46,9.70
2010,04,26,06,47,9.80
2010,04,26,06,48,9.80
2010,04,26,06,49,9.80
2010,04,26,06,50,9.90
2010,04,26,06,51,9.90
2010,04,26,06,52,9.90
2010,04,26,06,53,9.90
2010,04,26,06,54,9.90
2010,04,26,06,55,10.00
2010,04,26,06,56,10.10
2010,04,26,06,57,10.10
2010,04,26,06,58,10.10
2010,04,26,06,59,10.10
2010,04,26,07,00,10.20
2010,04,26,07,01,10.20
2010,04,26,07,02,10.30
2010,04,26,07,03,10.30
2010,04,26,07,04,10.30
2010,04,26,07,05,10.40
2010,04,26,07,06,10.40
2010,04,26,07,07,10.40
2010,04,26,07,08,10.40
2010,04,26,07,09,10.40
2010,04,26,07,10,10.40
2010,04,26,07,11,10.40
2010,04,26,07,12,10.40
2010,04,26,07,13,10.40
2010,04,26,07,14,10.40
2010,04,26,07,15,10.40
2010,04,26,07,16,10.40
2010,04,26,07,17,10.40
2010,04,26,07,18,10.40
2010,04,26,07,19,10.40
2010,04,26,07,20,10.40
2010,04,26,07,21,10.40
2010,04,26,07,22,10.40
2010,04,26,07,23,10.40
2010,04,26,07,24,10.40
2010,04,26,07,25,10.40
2010,04,26,07,26,10.40
2010,04,26,07,27,10.40
2010,04,26,07,28,10.40
2010,04,26,07,29,10.40
2010,04,26,07,30,10.40
2010,04,26,07,31,10.40
2010,04,26,07,32,10.40
2010,04,26,07,33,10.40
2010,04,26,07,34,10.40
2010,04,26,07,35,10.40
2010,04,26,07,36,10.40
2010,04,26,07,37,10.40
2010,04,26,07,38,10.40
2010,04,26,07,39,10.50
2010,04,26,07,40,10.60
2010,04,26,07,41,10.60
2010,04,26,07,42,10.60
2010,04,26,07,43,10.60
2010,04,26,07,44,10.60
2010,04,26,07,45,10.60
2010,04,26,07,46,10.60
2010,04,26,07,47,10.60
2010,04,26,07,48,10.60
2010,04,26,07,49,10.60
2010,04,26,07,50,10.60
2010,04,26,07,51,10.60
2010,04,26,07,52,10.60
2010,04,26,07,53,10.50
2010,04,26,07,54,10.40
2010,04,26,07,55,10.40
2010,04,26,07,56,10.40
2010,04,26,07,57,10.30
2010,04,26,07,58,10.30
2010,04,26,07,59,10.30
2010,04,26,08,00,10.20
2010,04,26,08,01,10.20
2010,04,26,08,02,10.20
2010,04,26,08,03,10.20
2010,04,26,08,04,10.10
2010,04,26,08,05,10.10
2010,04,26,08,06,10.20
2010,04,26,08,07,10.20
2010,04,26,08,08,10.20
2010,04,26,08,09,10.20
2010,04,26,08,10,10.20
2010,04,26,08,11,10.20
2010,04,26,08,12,10.20
2010,04,26,08,13,10.30
2010,04,26,08,14,10.30
2010,04,26,08,15,10.30
2010,04,26,08,16,10.30
2010,04,26,08,17,10.30
2010,04,26,08,18,10.40
2010,04,26,08,19,10.40
2010,04,26,08,20,10.40
2010,04,26,08,21,10.50
2010,04,26,08,22,10.60
2010,04,26,08,23,10.60
2010,04,26,08,24,10.60
2010,04,26,08,25,10.70
2010,04,26,08,26,10.70
2010,04,26,08,27,10.80
2010,04,26,08,28,10.80
2010,04,26,08,29,10.80
2010,04,26,08,30,10.90
2010,04,26,08,31,10.90
2010,04,26,08,32,10.90
2010,04,26,08,33,10.90
2010,04,26,08,34,10.90
2010,04,26,08,35,10.90
2010,04,26,08,36,10.90
2010,04,26,08,37,10.90
2010,04,26,08,38,10.90
2010,04,26,08,39,10.90
2010,04,26,08,40,10.90
2010,04,26,08,41,10.90
2010,04,26,08,42,10.90
2010,04,26,08,43,10.90
2010,04,26,08,44,10.90
2010,04,26,08,45,10.90
2010,04,26,08,46,10.90
2010,04,26,08,47,10.90
2010,04,26,08,48,10.90
2010,04,26,08,49,10.90
2010,04,26,08,50,10.90
2010,04,26,08,51,10.90
2010,04,26,08,52,11.10
2010,04,26,08,53,11.10
2010,04,26,08,54,11.10
2010,04,26,08,55,11.10
2010,04,26,08,56,11.10
2010,04,26,08,57,11.10
2010,04,26,08,58,11.10
2010,04,26,08,59,11.10
2010,04,26,09,00,11.20
2010,04,26,09,01,11.20
2010,04,26,09,02,11.20
2010,04,26,09,03,11.20
2010,04,26,09,04,11.20
2010,04,26,09,05,11.20
2010,04,26,09,06,11.20
2010,04,26,09,07,11.30
2010,04,26,09,08,11.30
2010,04,26,09,09,11.30
2010,04,26,09,10,11.30
2010,04,26,09,11,11.40
2010,04,26,09,12,11.40
2010,04,26,09,13,11.40
2010,04,26,09,14,11.40
2010,04,26,09,15,11.40
2010,04,26,09,16,11.40
2010,04,26,09,17,11.40
2010,04,26,09,18,11.40
2010,04,26,09,19,11.50
2010,04,26,09,20,11.60
2010,04,26,09,21,11.60
2010,04,26,09,22,11.60
2010,04,26,09,23,11.60
2010,04,26,09,24,11.60
2010,04,26,09,25,11.60
2010,04,26,09,26,11.60
2010,04,26,09,27,11.60
2010,04,26,09,28,11.60
2010,04,26,09,29,11.60
2010,04,26,09,30,11.60
2010,04,26,09,31,11.60
2010,04,26,09,32,11.60
2010,04,26,09,33,11.60
2010,04,26,09,34,11.60
2010,04,26,09,35,11.60
2010,04,26,09,36,11.60
2010,04,26,09,37,11.60
2010,04,26,09,38,11.70
2010,04,26,09,39,11.80
2010,04,26,09,40,11.80
2010,04,26,09,41,11.90
2010,04,26,09,42,12.00
2010,04,26,09,43,12.00
2010,04,26,09,44,12.10
2010,04,26,09,45,12.20
2010,04,26,09,46,12.20
2010,04,26,09,47,12.30
2010,04,26,09,48,12.30
2010,04,26,09,49,12.30
2010,04,26,09,50,12.30
2010,04,26,09,51,12.30
2010,04,26,09,52,12.40
2010,04,26,09,53,12.40
2010,04,26,09,54,12.40
2010,04,26,09,55,12.50
2010,04,26,09,56,12.50
2010,04,26,09,57,12.50
2010,04,26,09,58,12.50
2010,04,26,09,59,12.60
2010,04,26,10,00,12.60
2010,04,26,10,01,12.60
2010,04,26,10,02,12.60
2010,04,26,10,03,12.50
2010,04,26,10,04,12.50
2010,04,26,10,05,12.50
2010,04,26,10,06,12.50
2010,04,26,10,07,12.40
2010,04,26,10,08,12.40
2010,04,26,10,09,12.40
2010,04,26,10,10,12.40
2010,04,26,10,11,12.30
2010,04,26,10,12,12.30
2010,04,26,10,13,12.30
2010,04,26,10,14,12.30
2010,04,26,10,15,12.30
2010,04,26,10,16,12.30
2010,04,26,10,17,12.30
2010,04,26,10,18,12.30
2010,04,26,10,19,12.30
2010,04,26,10,20,12.20
2010,04,26,10,21,12.20
2010,04,26,10,22,12.20
2010,04,26,10,23,12.20
2010,04,26,10,24,12.20
2010,04,26,10,25,12.20
2010,04,26,10,26,12.30
2010,04,26,10,27,12.30
2010,04,26,10,28,12.30
2010,04,26,10,29,12.30
2010,04,26,10,30,12.30
2010,04,26,10,31,12.30
2010,04,26,10,32,12.30
2010,04,26,10,33,12.30
2010,04,26,10,34,12.20
2010,04,26,10,35,12.30
2010,04,26,10,36,12.30
2010,04,26,10,37,12.30
2010,04,26,10,38,12.30
2010,04,26,10,39,12.30
2010,04,26,10,40,12.40
2010,04,26,10,41,12.40
2010,04,26,10,42,12.50
2010,04,26,10,43,12.60
2010,04,26,10,44,12.70
2010,04,26,10,45,12.80
2010,04,26,10,46,12.90
2010,04,26,10,47,13.00
2010,04,26,10,48,13.10
2010,04,26,10,49,13.20
2010,04,26,10,50,13.30
2010,04,26,10,51,13.30
2010,04,26,10,52,13.40
2010,04,26,10,53,13.50
2010,04,26,10,54,13.50
2010,04,26,10,55,13.60
2010,04,26,10,56,13.60
2010,04,26,10,57,13.70
2010,04,26,10,58,13.70
2010,04,26,10,59,13.70
2010,04,26,11,00,13.70
2010,04,26,11,01,13.70
2010,04,26,11,02,13.70
2010,04,26,11,03,13.70
2010,04,26,11,04,13.80
2010,04,26,11,05,13.80
2010,04,26,11,06,13.70
2010,04,26,11,07,13.80
2010,04,26,11,08,13.80
2010,04,26,11,09,13.80
2010,04,26,11,10,13.70
2010,04,26,11,11,13.70
2010,04,26,11,12,13.70
2010,04,26,11,13,13.70
2010,04,26,11,14,13.70
2010,04,26,11,15,13.60
2010,04,26,11,16,13.60
2010,04,26,11,17,13.60
2010,04,26,11,18,13.70
2010,04,26,11,19,13.80
2010,04,26,11,20,13.90
2010,04,26,11,21,14.00
2010,04,26,11,22,14.00
2010,04,26,11,23,14.10
2010,04,26,11,24,14.00
2010,04,26,11,25,14.00
2010,04,26,11,26,14.00
2010,04,26,11,27,14.00
2010,04,26,11,28,14.00
2010,04,26,11,29,13.90
2010,04,26,11,30,13.80
2010,04,26,11,31,13.80
2010,04,26,11,32,13.80
2010,04,26,11,33,13.80
2010,04,26,11,34,13.80
2010,04,26,11,35,13.90
2010,04,26,11,36,13.90
2010,04,26,11,37,13.90
2010,04,26,11,38,14.00
2010,04,26,11,39,14.10
2010,04,26,11,40,14.20
2010,04,26,11,41,14.20
2010,04,26,11,42,14.20
2010,04,26,11,43,14.30
2010,04,26,11,44,14.30
2010,04,26,11,45,14.30
2010,04,26,11,46,14.30
2010,04,26,11,47,14.30
2010,04,26,11,48,14.30
2010,04,26,11,49,14.30
2010,04,26,11,50,14.20
2010,04,26,11,51,14.20
2010,04,26,11,52,14.10
2010,04,26,11,53,14.00
2010,04,26,11,54,13.90
2010,04,26,11,55,13.80
2010,04,26,11,56,13.80
2010,04,26,11,57,13.90
2010,04,26,11,58,13.90
2010,04,26,11,59,14.00
2010,04,26,12,00,14.00
2010,04,26,12,01,14.10
2010,04,26,12,02,14.20
2010,04,26,12,03,14.20
2010,04,26,12,04,14.20
2010,04,26,12,05,14.20
2010,04,26,12,06,14.20
2010,04,26,12,07,14.20
2010,04,26,12,08,14.20
2010,04,26,12,09,14.20
2010,04,26,12,10,14.20
2010,04,26,12,11,14.20
2010,04,26,12,12,14.20
2010,04,26,12,13,14.30
2010,04,26,12,14,14.30
2010,04,26,12,15,14.20
2010,04,26,12,16,14.20
2010,04,26,12,17,14.30
2010,04,26,12,18,14.40
2010,04,26,12,19,14.40
2010,04,26,12,20,14.40
2010,04,26,12,21,14.40
2010,04,26,12,22,14.40
2010,04,26,12,23,14.40
2010,04,26,12,24,14.40
2010,04,26,12,25,14.30
2010,04,26,12,26,14.30
2010,04,26,12,27,14.40
2010,04,26,12,28,14.40
2010,04,26,12,29,14.40
2010,04,26,12,30,14.40
2010,04,26,12,31,14.30
2010,04,26,12,32,14.30
2010,04,26,12,33,14.30
2010,04,26,12,34,14.30
2010,04,26,12,35,14.20
2010,04,26,12,36,14.20
2010,04,26,12,37,14.30
2010,04,26,12,38,14.20
2010,04,26,12,39,14.20
2010,04,26,12,40,14.20
2010,04,26,12,41,14.30
2010,04,26,12,42,14.20
2010,04,26,12,43,14.20
2010,04,26,12,44,14.20
2010,04,26,12,45,14.20
2010,04,26,12,46,14.20
2010,04,26,12,47,14.20
2010,04,26,12,48,14.20
2010,04,26,12,49,14.20
2010,04,26,12,50,14.30
2010,04,26,12,51,14.40
2010,04,26,12,52,14.40
2010,04,26,12,53,14.30
2010,04,26,12,54,14.30
2010,04,26,12,55,14.20
2010,04,26,12,56,14.20
2010,04,26,12,57,14.10
2010,04,26,12,58,14.00
2010,04,26,12,59,13.90
2010,04,26,13,00,13.90
2010,04,26,13,01,14.00
2010,04,26,13,02,14.00
2010,04,26,13,03,14.00
2010,04,26,13,04,14.10
2010,04,26,13,05,14.10
2010,04,26,13,06,14.20
2010,04,26,13,07,14.20
2010,04,26,13,08,14.20
2010,04,26,13,09,14.20
2010,04,26,13,10,14.30
2010,04,26,13,11,14.40
2010,04,26,13,12,14.40
2010,04,26,13,13,14.50
2010,04,26,13,14,14.60
2010,04,26,13,15,14.60
2010,04,26,13,16,14.60
2010,04,26,13,17,14.70
2010,04,26,13,18,14.70
2010,04,26,13,19,14.70
2010,04,26,13,20,14.70
2010,04,26,13,21,14.80
2010,04,26,13,22,14.80
2010,04,26,13,23,14.80
2010,04,26,13,24,14.70
2010,04,26,13,25,14.70
2010,04,26,13,26,14.70
2010,04,26,13,27,14.70
2010,04,26,13,28,14.70
2010,04,26,13,29,14.80
2010,04,26,13,30,14.80
2010,04,26,13,31,14.80
2010,04,26,13,32,14.80
2010,04,26,13,33,14.80
2010,04,26,13,34,15.00
2010,04,26,13,35,15.10
2010,04,26,13,36,15.20
2010,04,26,13,37,15.20
2010,04,26,13,38,15.20
2010,04,26,13,39,15.10
2010,04,26,13,40,15.10
2010,04,26,13,41,15.10
2010,04,26,13,42,15.10
2010,04,26,13,43,15.10
2010,04,26,13,44,15.10
2010,04,26,13,45,15.10
2010,04,26,13,46,15.10
2010,04,26,13,47,15.10
2010,04,26,13,48,15.10
2010,04,26,13,49,15.10
2010,04,26,13,50,15.10
2010,04,26,13,51,15.10
2010,04,26,13,52,15.00
2010,04,26,13,53,15.00
2010,04,26,13,54,15.00
2010,04,26,13,55,15.00
2010,04,26,13,56,15.00
2010,04,26,13,57,15.00
2010,04,26,13,58,15.00
2010,04,26,13,59,15.00
2010,04,26,14,00,15.00
2010,04,26,14,01,15.00
2010,04,26,14,02,15.00
2010,04,26,14,03,15.00
2010,04,26,14,04,15.00
2010,04,26,14,05,15.00
2010,04,26,14,06,15.00
2010,04,26,14,07,15.10
2010,04,26,14,08,15.20
2010,04,26,14,09,15.20
2010,04,26,14,10,15.10
2010,04,26,14,11,15.10
2010,04,26,14,12,15.10
2010,04,26,14,13,15.00
2010,04,26,14,14,15.00
2010,04,26,14,15,14.90
2010,04,26,14,16,14.80
2010,04,26,14,17,14.80
2010,04,26,14,18,14.70
2010,04,26,14,19,14.60
2010,04,26,14,20,14.60
2010,04,26,14,21,14.60
2010,04,26,14,22,14.60
2010,04,26,14,23,14.60
2010,04,26,14,24,14.60
2010,04,26,14,25,14.70
2010,04,26,14,26,14.80
2010,04,26,14,27,14.90
2010,04,26,14,28,14.90
2010,04,26,14,29,15.00
2010,04,26,14,30,15.00
2010,04,26,14,31,15.00
2010,04,26,14,32,15.00
2010,04,26,14,33,15.00
2010,04,26,14,34,15.10
2010,04,26,14,35,15.10
2010,04,26,14,36,15.10
2010,04,26,14,37,15.00
2010,04,26,14,38,14.90
2010,04,26,14,39,14.80
2010,04,26,14,40,14.80
2010,04,26,14,41,14.80
2010,04,26,14,42,14.80
2010,04,26,14,43,14.90
2010,04,26,14,44,15.00
2010,04,26,14,45,15.00
2010,04,26,14,46,14.90
2010,04,26,14,47,14.80
2010,04,26,14,48,14.80
2010,04,26,14,49,14.80
2010,04,26,14,50,14.80
2010,04,26,14,51,14.80
2010,04,26,14,52,14.80
2010,04,26,14,53,14.80
2010,04,26,14,54,14.80
2010,04,26,14,55,14.80
2010,04,26,14,56,14.80
2010,04,26,14,57,14.80
2010,04,26,14,58,14.90
2010,04,26,14,59,14.90
2010,04,26,15,00,15.00
2010,04,26,15,01,15.00
2010,04,26,15,02,15.00
2010,04,26,15,03,15.10
2010,04,26,15,04,15.20
2010,04,26,15,05,15.20
2010,04,26,15,06,15.10
2010,04,26,15,07,15.10
2010,04,26,15,08,15.00
2010,04,26,15,09,14.90
2010,04,26,15,10,15.00
2010,04,26,15,11,15.10
2010,04,26,15,12,15.10
2010,04,26,15,13,15.20
2010,04,26,15,14,15.20
2010,04,26,15,15,15.10
2010,04,26,15,16,15.10
2010,04,26,15,17,15.00
2010,04,26,15,18,15.00
2010,04,26,15,19,15.00
2010,04,26,15,20,15.00
2010,04,26,15,21,14.90
2010,04,26,15,22,14.90
2010,04,26,15,23,14.90
2010,04,26,15,24,14.90
2010,04,26,15,25,14.90
2010,04,26,15,26,15.00
2010,04,26,15,27,15.00
2010,04,26,15,28,15.10
2010,04,26,15,29,15.10
2010,04,26,15,30,15.20
2010,04,26,15,31,15.10
2010,04,26,15,32,15.10
2010,04,26,15,33,15.10
2010,04,26,15,34,15.10
2010,04,26,15,35,15.10
2010,04,26,15,36,15.10
2010,04,26,15,37,15.10
2010,04,26,15,38,15.10
2010,04,26,15,39,15.20
2010,04,26,15,40,15.30
2010,04,26,15,41,15.30
2010,04,26,15,42,15.30
2010,04,26,15,43,15.20
2010,04,26,15,44,15.10
2010,04,26,15,45,15.10
2010,04,26,15,46,15.00
2010,04,26,15,47,14.90
2010,04,26,15,48,14.80
2010,04,26,15,49,14.80
2010,04,26,15,50,14.80
2010,04,26,15,51,14.80
2010,04,26,15,52,14.80
2010,04,26,15,53,14.80
2010,04,26,15,54,14.80
2010,04,26,15,55,14.70
2010,04,26,15,56,14.70
2010,04,26,15,57,14.60
2010,04,26,15,58,14.60
2010,04,26,15,59,14.50
2010,04,26,16,00,14.50
2010,04,26,16,01,14.40
2010,04,26,16,02,14.30
2010,04,26,16,03,14.30
2010,04,26,16,04,14.30
2010,04,26,16,05,14.20
2010,04,26,16,06,14.20
2010,04,26,16,07,14.20
2010,04,26,16,08,14.20
2010,04,26,16,09,14.20
2010,04,26,16,10,14.10
2010,04,26,16,11,14.10
2010,04,26,16,12,14.10
2010,04,26,16,13,14.10
2010,04,26,16,14,14.00
2010,04,26,16,15,14.00
2010,04,26,16,16,13.90
2010,04,26,16,17,13.90
2010,04,26,16,18,13.80
2010,04,26,16,19,13.70
2010,04,26,16,20,13.70
2010,04,26,16,21,13.70
2010,04,26,16,22,13.70
2010,04,26,16,23,13.70
2010,04,26,16,24,13.60
2010,04,26,16,25,13.60
2010,04,26,16,26,13.60
2010,04,26,16,27,13.60
2010,04,26,16,28,13.60
2010,04,26,16,29,13.50
2010,04,26,16,30,13.50
2010,04,26,16,31,13.40
2010,04,26,16,32,13.40
2010,04,26,16,33,13.40
2010,04,26,16,34,13.40
2010,04,26,16,35,13.40
2010,04,26,16,36,13.30
2010,04,26,16,37,13.30
2010,04,26,16,38,13.30
2010,04,26,16,39,13.30
2010,04,26,16,40,13.30
2010,04,26,16,41,13.30
2010,04,26,16,42,13.30
2010,04,26,16,43,13.40
2010,04,26,16,44,13.40
2010,04,26,16,45,13.50
2010,04,26,16,46,13.50
2010,04,26,16,47,13.50
2010,04,26,16,48,13.40
2010,04,26,16,49,13.40
2010,04,26,16,50,13.40
2010,04,26,16,51,13.30
2010,04,26,16,52,13.30
2010,04,26,16,53,13.30
2010,04,26,16,54,13.20
2010,04,26,16,55,13.20
2010,04,26,16,56,13.20
2010,04,26,16,57,13.20
2010,04,26,16,58,13.20
2010,04,26,16,59,13.20
2010,04,26,17,00,13.10
2010,04,26,17,01,13.10
2010,04,26,17,02,13.20
2010,04,26,17,03,13.20
2010,04,26,17,04,13.20
2010,04,26,17,05,13.20
2010,04,26,17,06,13.20
2010,04,26,17,07,13.20
2010,04,26,17,08,13.20
2010,04,26,17,09,13.20
2010,04,26,17,10,13.10
2010,04,26,17,11,13.10
2010,04,26,17,12,13.10
2010,04,26,17,13,13.10
2010,04,26,17,14,13.10
2010,04,26,17,15,13.10
2010,04,26,17,16,13.10
2010,04,26,17,17,13.20
2010,04,26,17,18,13.20
2010,04,26,17,19,13.10
2010,04,26,17,20,13.10
2010,04,26,17,21,13.10
2010,04,26,17,22,13.10
2010,04,26,17,23,13.10
2010,04,26,17,24,13.10
2010,04,26,17,25,13.10
2010,04,26,17,26,13.10
2010,04,26,17,27,13.10
2010,04,26,17,28,13.10
2010,04,26,17,29,13.10
2010,04,26,17,30,13.10